Weather observations for the past three days for
Grand Rapids, Gerald R. Ford International Airport
Imperial (Metric)
Date Time (edt) Wind (mph) Vis. (mi.) Weather Sky Cond. Temperature (ºF) Relative Humidity Wind Chill (°F) Heat Index (°F) Pressure Precipitation (in)
Air Dwpt 6 hour altimeter (in) sea level (mb) 1 hr 3 hr 6 hr
Max. Min.
13 16:53 W 14 10.00 Partly Cloudy FEW044 SCT060 SCT180 80.1 70 71% 83 29.83 1009.5 0.03
13 15:53 W 10 10.00 Mostly Cloudy FEW026 BKN049 BKN070 BKN180 75.9 69.1 79% 77 29.85 1010.2 0.03
13 14:53 W 22 G 33 10.00 Mostly Cloudy and Breezy FEW044 BKN060 BKN180 84 64.9 53% 86 29.83 1009.5
13 13:53 SW 25 G 36 10.00 Mostly Cloudy and Breezy SCT046 BKN065 BKN180 86 64.9 87.1 73 49% 88 29.82 1009.1
13 12:53 SW 18 G 35 10.00 Partly Cloudy FEW044 SCT055 SCT130 84 64.9 53% 86 29.84 1009.8
13 11:53 W 23 G 31 10.00 Mostly Cloudy and Breezy SCT050 SCT130 BKN200 82.9 66 57% 85 29.84 1009.9
13 10:53 SW 17 10.00 Partly Cloudy FEW050 SCT130 SCT200 78.1 64.9 64% 80 29.81 1009.0
13 09:53 SW 12 10.00 Mostly Cloudy BKN050 BKN130 BKN200 73.9 64 71% 29.85 1010.2
13 08:53 W 10 10.00 Mostly Cloudy FEW060 SCT095 SCT110 BKN200 75 64 69% 77 29.88 1011.3
13 07:53 SW 13 10.00 Mostly Cloudy FEW038 BKN110 BKN230 73 63 73.9 68 71% 29.86 1010.5 0.04
13 06:53 SW 13 10.00 Mostly Cloudy SCT095 BKN140 71.1 62.1 73% 29.84 1009.8
13 05:53 S 14 10.00 Partly Cloudy SCT095 SCT140 71.1 61 71% 29.82 1009.3
13 04:53 S 6 10.00 Mostly Cloudy BKN090 BKN110 70 62.1 76% 29.84 1009.8 0.04
13 03:53 Vrbl 5 G 22 9.00 Light Rain BKN100 70 61 73% 29.83 1009.6 0.04
13 02:53 S 10 10.00 A Few Clouds FEW090 FEW120 73 57.9 59% 29.82 1009.4
13 01:53 S 10 10.00 Fair CLR 71.1 55 79 66 57% 29.84 1010.0
13 00:53 S 8 10.00 Fair CLR 66.9 55 66% 29.85 1010.5
12 23:53 S 6 10.00 Mostly Cloudy BKN250 68 55.9 65% 29.85 1010.4
12 22:53 S 8 10.00 Mostly Cloudy BKN250 69.1 57 66% 29.85 1010.3
12 21:53 S 7 10.00 Mostly Cloudy BKN220 71.1 57 61% 29.84 1010.4
12 20:53 S 6 10.00 Overcast FEW060 OVC220 75 57 54% 78 29.87 1011.0
12 19:53 SW 6 10.00 Mostly Cloudy FEW060 BKN220 79 55 84 79 44% 80 29.88 1011.3
12 18:53 W 13 10.00 Mostly Cloudy FEW060 BKN220 81 53.1 38% 80 29.88 1011.6
12 17:53 W 12 10.00 Mostly Cloudy FEW060 BKN250 82.9 53.1 36% 82 29.9 1012.2
12 16:53 W 13 10.00 Mostly Cloudy FEW060 BKN250 84 55 37% 83 29.9 1012.1
12 15:53 W 13 10.00 Mostly Cloudy FEW060 BKN250 82 59 46% 82 29.91 1012.6
12 14:53 SW 15 G 21 10.00 Partly Cloudy FEW060 SCT250 82 62.1 51% 83 29.92 1012.8
12 13:53 SW 15 G 21 10.00 A Few Clouds FEW250 79 62.1 80.1 59 56% 80 29.92 1012.8 0.09
12 12:53 SW 15 G 22 10.00 A Few Clouds FEW250 78.1 61 56% 80 29.93 1013.1
12 11:53 SW 15 G 21 10.00 A Few Clouds FEW085 75 61 62% 77 29.93 1013.2
12 10:53 SW 15 10.00 A Few Clouds FEW060 FEW085 72 59 64% 29.94 1013.5 0.09
12 09:53 S 10 10.00 Mostly Cloudy BKN060 BKN100 64.9 55 70% 29.95 1014.0 0.01
12 08:53 S 5 8.00 Light Rain SCT033 BKN070 BKN100 59 54 83% 29.96 1014.2 0.08
12 07:53 SW 9 10.00 Light Rain SCT075 BKN100 62.1 48.9 62.1 55.9 62% 29.96 1014.2
12 06:53 Calm 10.00 Mostly Cloudy FEW075 BKN110 BKN250 59 48 67% 29.95 1014.0
12 05:53 S 6 10.00 Partly Cloudy SCT120 SCT250 57.9 46 65% 29.94 1013.6
12 04:53 S 6 10.00 Fair CLR 57 46 67% 29.92 1013.2
12 03:53 S 7 10.00 Mostly Cloudy BKN060 60.1 46 60% 29.92 1013.0
12 02:53 S 8 10.00 Overcast OVC070 62.1 46 56% 29.93 1013.2
12 01:53 S 7 10.00 Overcast OVC070 60.1 46.9 66.9 60.1 62% 29.94 1013.6
12 00:53 SE 5 10.00 Overcast BKN080 OVC100 61 46 58% 29.94 1013.8
11 23:53 Calm 10.00 Mostly Cloudy BKN090 BKN140 62.1 46 56% 29.96 1014.2
11 22:53 SE 3 10.00 Mostly Cloudy BKN095 BKN140 61 44.1 54% 29.95 1014.3
11 21:53 S 3 10.00 Mostly Cloudy BKN100 BKN150 64 44.1 48% 29.95 1014.2
11 20:53 W 9 10.00 Mostly Cloudy FEW030 BKN110 BKN150 66 39 37% 29.95 1014.1
11 19:53 W 7 10.00 Overcast SCT030 BKN110 OVC170 66.9 36 73 66.9 32% 29.95 1014.0
11 18:53 W 7 10.00 Overcast SCT120 OVC200 68 36 31% 29.95 1014.2
11 17:53 W 13 10.00 Mostly Cloudy BKN200 70 43 38% 29.96 1014.7
11 16:53 SW 6 10.00 Mostly Cloudy FEW150 BKN230 73 45 37% 29.96 1014.4
11 15:53 Vrbl 6 10.00 Mostly Cloudy FEW080 FEW150 BKN250 72 43 35% 29.97 1015.0
11 14:53 SW 9 10.00 Mostly Cloudy FEW080 FEW150 BKN250 71.1 44.1 38% 29.99 1015.4
11 13:53 Vrbl 5 10.00 Mostly Cloudy FEW050 BKN250 69.1 43 70 52 39% 30 1015.8
11 12:53 S 7 10.00 Mostly Cloudy FEW050 BKN250 66.9 44.1 44% 30.01 1016.0
11 11:53 Vrbl 3 10.00 Partly Cloudy FEW050 SCT250 66 44.1 45% 30.01 1016.2
11 10:53 Vrbl 3 10.00 Partly Cloudy FEW042 SCT250 63 45 52% 30.03 1016.8
11 09:53 Calm 10.00 Partly Cloudy SCT250 60.1 45 58% 30.04 1017.2
11 08:53 Calm 10.00 Partly Cloudy SCT250 55.9 45 67% 30.04 1017.3
11 07:53 Calm 10.00 A Few Clouds FEW250 52 43 52 45 72% 30.03 1017.0
11 06:53 E 5 10.00 A Few Clouds FEW250 45 42.1 90% 43 30.01 1016.1
11 05:53 Calm 10.00 A Few Clouds FEW250 46 39 77% 30.02 1016.6
11 04:53 N 3 10.00 Fair CLR 48 39.9 74% 30 1016.0
11 03:53 Calm 10.00 Fair CLR 48.9 39.9 71% 29.99 1015.6
11 02:53 N 3 10.00 Fair CLR 48 41 77% 29.99 1015.5
11 01:53 NE 3 10.00 Fair CLR 48.9 42.1 66 48.9 77% 29.99 1015.6
11 00:53 N 5 10.00 Fair CLR 52 41 66% 29.98 1015.4
10 23:53 N 7 10.00 Fair CLR 54 41 62% 29.97 1014.8
10 22:53 N 7 10.00 Fair CLR 57 41 55% 29.96 1014.4
10 21:53 N 7 10.00 Fair CLR 59 41 51% 29.93 1013.7
10 20:53 N 9 10.00 Fair CLR 63 43 48% 29.92 1013.1
10 19:53 N 10 10.00 A Few Clouds FEW055 66 43 71.1 66 43% 29.9 1012.6
10 18:53 N 10 10.00 A Few Clouds FEW055 69.1 43 39% 29.89 1012.1
10 17:53 Vrbl 5 G 17 10.00 A Few Clouds FEW055 70 43 38% 29.89 1012.2
Date Time (edt) Wind (mph) Vis. (mi.) Weather Sky Cond. Air Dwpt Max. Min. Relative Humidity Wind Chill (°F) Heat Index (°F) altimeter (in) sea level (mb) 1 hr 3 hr 6 hr
6 hour
Temperature (ºF) Pressure Precipitation (in)